Theta_e
350 350 350 350 348 347 349 350 350 351 351 351 351 351 350 350 350 350 350 349 349 349 351 349 350 347 348 346 345 345 345 345 345 345 343 341 341 342 342 342 342 344 344 346 346 347 346 345 344 343 344 344 344 342 347 343 341 338 338 336 342 334
349 350 350 349 349 347 349 347 350 352 352 353 352 352 353 352 353 353 350 349 353 349 349 351 350 349 348 347 346 345 344 344 344 344 343 342 342 342 341 341 340 341 343 345 347 348 348 346 344 344 344 344 343 345 345 343 342 340 336 338 339 338
349 348 347 347 346 343 344 344 347 348 350 350 354 353 351 351 351 350 350 352 352 348 346 347 349 347 348 347 347 345 345 344 344 345 344 344 342 342 342 339 341 339 341 342 346 348 347 346 345 345 345 345 344 346 345 343 342 340 340 340 337 341
348 347 345 346 345 342 344 344 342 347 348 350 351 349 349 348 351 348 349 349 347 347 347 349 345 348 349 348 348 346 345 344 344 345 346 345 344 343 341 340 338 340 340 342 345 345 345 347 346 345 346 344 345 343 342 343 339 341 343 338 337 341
347 346 343 342 344 342 343 341 341 343 346 346 346 346 347 348 348 348 347 347 345 347 346 346 345 346 345 345 346 348 348 347 347 346 346 349 346 343 340 332 334 336 337 337 339 341 343 344 348 345 345 345 344 346 343 343 339 341 342 342 341 341
343 341 341 341 342 341 343 340 341 341 343 343 345 345 345 347 346 348 344 344 347 346 345 343 344 344 343 343 343 343 345 345 345 344 346 345 341 344 346 339 335 332 334 340 340 340 341 341 343 346 344 344 342 343 341 342 342 338 343 343 342 341
341 342 342 342 344 341 340 341 341 344 344 342 342 344 343 342 345 346 346 347 346 342 342 342 345 345 343 345 345 344 342 342 342 342 341 344 344 342 341 339 337 338 336 337 337 339 338 339 341 340 342 341 341 339 341 339 340 340 341 342 344 343
342 341 341 343 343 341 342 342 343 344 344 341 341 341 340 341 344 342 344 344 344 342 342 343 348 347 347 348 347 350 348 346 345 345 343 341 341 341 341 341 341 340 335 332 331 336 336 338 339 340 341 341 342 341 342 339 339 342 341 342 343 344
341 342 341 343 342 340 342 343 344 342 343 341 342 342 341 343 343 342 344 345 345 346 344 348 347 347 354 348 349 349 348 350 348 349 349 347 344 344 342 343 343 340 341 336 332 333 334 335 340 341 338 339 340 341 342 341 341 338 340 341 342 343
341 341 343 343 342 342 342 343 343 343 343 343 343 344 344 342 342 343 345 347 349 350 349 348 348 354 350 349 348 347 348 350 347 350 349 347 348 346 349 343 344 341 337 340 337 334 332 334 334 338 339 337 338 339 340 337 338 339 339 341 342 348
342 344 343 341 343 344 345 344 344 344 345 345 345 345 345 345 347 348 349 350 350 350 351 350 348 348 348 346 348 345 347 347 347 346 348 346 346 347 349 343 344 345 343 341 341 341 335 335 334 335 339 338 338 340 339 339 339 341 338 340 341 345
343 344 345 343 344 344 344 344 345 345 344 345 347 348 347 348 348 349 350 352 351 348 347 350 350 347 346 346 348 347 345 345 345 346 346 349 349 348 346 344 345 346 345 343 341 339 340 339 337 335 335 339 341 341 340 340 339 337 339 340 340 341
344 346 346 344 344 344 345 344 345 347 346 345 347 345 346 348 349 348 350 349 347 351 351 348 350 350 349 346 347 347 345 347 348 347 348 349 349 348 346 346 344 346 344 344 342 342 338 339 339 338 337 338 339 340 342 342 341 341 340 341 342 342
346 345 345 345 345 345 346 347 348 348 348 348 348 348 349 347 350 349 347 352 351 351 350 351 350 350 349 348 348 346 348 348 349 351 350 351 346 344 344 344 344 343 342 342 340 340 340 340 337 339 338 338 337 338 340 340 342 341 339 339 341 343
345 346 346 347 346 348 348 347 347 345 346 347 347 346 345 347 352 346 348 349 351 351 350 351 351 351 349 347 346 346 346 347 350 351 348 349 348 346 344 343 343 342 342 341 340 341 340 339 342 338 340 342 338 338 339 339 341 343 342 341 340 340
346 347 348 349 349 346 350 347 344 345 346 345 348 344 346 346 346 347 348 349 350 350 351 351 351 350 350 348 346 345 347 349 348 349 348 348 348 344 345 344 344 343 342 340 339 338 340 340 342 342 345 343 341 341 339 341 339 340 342 343 340 340
345 348 349 349 344 344 345 345 347 346 345 344 346 344 348 348 348 348 348 347 351 350 351 350 351 350 350 349 347 347 347 349 350 348 348 348 346 344 344 344 344 344 344 340 339 338 339 340 340 340 342 344 343 344 341 340 343 343 340 339 342 341
341 344 345 343 343 343 342 345 345 346 345 345 344 347 348 348 346 349 349 348 348 349 349 349 349 347 350 349 348 348 348 349 348 347 348 346 345 345 345 344 342 343 343 340 339 338 339 339 339 339 340 341 342 344 344 344 339 341 344 339 340 342
337 341 343 340 339 344 347 345 345 343 341 346 346 349 346 346 349 347 347 348 348 350 349 347 347 348 347 346 347 347 348 347 348 347 346 346 345 345 345 345 342 343 344 344 342 342 341 339 339 338 339 340 342 342 342 343 341 342 342 341 342 340
337 341 342 342 343 342 344 341 340 341 341 341 345 343 345 347 347 344 347 348 347 347 346 345 346 349 349 347 346 346 346 347 346 345 346 344 342 340 343 343 344 343 342 342 342 341 340 339 339 338 338 339 340 341 342 343 342 343 342 340 341 341
337 338 339 340 337 339 338 340 338 338 339 344 341 342 345 344 342 349 346 345 347 348 348 345 347 349 348 346 347 347 347 346 346 345 341 340 341 343 343 344 342 343 341 339 340 341 340 340 336 335 336 337 338 341 343 342 343 343 342 340 339 341
336 334 337 338 339 342 341 342 338 339 340 341 339 340 339 343 345 347 347 347 349 349 349 349 348 346 347 345 345 344 344 344 343 341 342 342 341 340 341 343 342 340 342 339 337 340 339 339 333 330 328 331 333 336 340 341 341 340 340 341 340 340
335 335 336 337 337 341 341 342 344 342 339 342 342 342 342 344 346 345 346 347 348 347 346 346 345 343 344 345 344 343 342 343 343 342 342 341 341 339 338 340 340 339 336 338 336 338 339 340 332 335 334 330 327 326 331 336 338 340 340 341 341 340
336 336 339 339 342 341 342 345 347 343 344 342 341 342 343 343 343 343 342 344 345 342 342 342 341 341 342 343 344 342 342 342 341 341 341 339 341 339 338 338 341 341 338 333 335 335 340 340 338 332 325 325 326 325 321 324 330 336 341 341 340 338
333 335 336 338 341 340 342 345 344 343 343 341 341 340 339 338 340 341 340 341 341 341 341 341 341 339 339 340 341 341 342 340 339 339 338 337 338 337 339 338 339 337 337 334 333 334 337 341 338 339 332 326 323 321 321 325 328 329 334 335 338 341
336 339 339 342 343 343 341 340 340 337 335 335 333 334 334 335 336 336 336 340 340 340 339 338 338 339 339 338 339 339 339 339 338 337 337 337 337 337 337 337 337 337 336 337 335 333 332 338 339 339 338 336 333 324 323 327 326 320 332 334 334 333
337 337 339 340 342 341 340 340 338 337 336 334 332 333 336 337 336 336 338 337 337 338 337 337 337 336 335 336 336 337 338 338 338 337 337 337 336 336 335 335 335 336 336 335 336 331 331 332 334 337 339 338 336 335 336 329 323 325 321 328 332 332
336 336 338 339 339 340 338 337 337 336 335 335 333 333 334 335 336 336 335 335 335 334 334 334 334 333 333 334 334 334 334 334 333 334 332 333 331 330 331 333 334 334 335 335 334 332 332 331 329 330 334 333 333 334 336 336 335 326 323 321 323 330
334 334 335 336 335 336 336 336 334 334 333 334 334 332 332 333 333 334 332 333 333 333 333 333 331 331 332 332 332 332 331 330 330 329 329 329 328 328 328 331 331 330 330 330 331 331 330 330 332 330 330 331 332 330 330 331 332 332 327 324 321 324
331 332 333 333 333 334 335 336 334 333 331 330 331 331 332 331 331 332 330 330 331 329 328 328 329 329 329 328 328 329 328 327 327 326 325 326 327 326 326 327 328 328 328 328 330 329 328 329 330 331 330 330 328 328 328 328 328 327 327 327 322 322
330 330 330 331 331 331 333 333 333 332 332 331 330 330 329 328 328 329 328 327 328 327 327 326 327 327 326 326 327 327 326 326 326 326 325 324 325 324 325 325 326 327 326 325 326 327 328 328 327 326 327 327 326 326 325 324 325 326 326 323 322 323
329 329 329 329 329 329 329 330 330 329 328 328 327 326 326 325 325 324 324 324 325 324 324 324 323 323 323 324 324 322 324 324 323 323 322 324 324 323 324 325 325 324 325 325 325 325 326 325 324 324 324 324 323 325 325 325 326 326 326 324 324 323
326 327 327 327 326 326 325 326 326 326 325 325 325 325 324 323 323 323 322 322 323 322 321 320 320 319 320 320 321 320 320 320 321 322 322 322 322 322 323 323 324 323 322 322 322 323 322 323 322 321 321 323 323 323 323 324 325 324 325 326 325 322
324 325 325 325 324 323 323 323 324 323 323 323 323 323 322 322 322 321 321 320 321 320 319 318 318 317 318 319 319 319 320 320 320 320 320 320 320 321 321 320 321 320 320 320 321 321 321 320 321 321 320 319 320 320 322 324 324 323 322 321 320 320
323 324 324 323 322 321 321 321 321 322 322 322 321 320 319 320 320 319 319 319 319 318 317 317 316 317 317 318 318 319 319 319 318 318 319 319 319 319 320 320 319 319 319 318 319 319 319 319 318 318 319 319 318 320 320 321 321 321 321 320 319 319
322 322 321 321 320 320 319 320 320 320 320 320 320 319 318 318 319 319 318 317 316 317 317 317 316 316 317 318 318 318 318 317 317 317 317 317 317 317 318 317 317 318 316 317 317 318 317 318 317 317 317 318 318 318 319 320 320 320 320 320 320 320
321 321 320 319 318 318 318 318 318 318 318 318 318 317 316 317 318 318 318 316 316 316 316 316 316 316 317 317 317 317 316 316 315 315 315 315 315 316 316 316 316 315 314 315 316 316 316 316 316 316 316 316 316 316 317 318 318 318 318 319 319 318
Wind_Speed
11 12 12 12 10 11 10 10 10 12 12 13 13 13 13 12 12 11 10 10 10 8 8 8 8 8 11 8 10 9 8 7 7 7 7 6 5 4 3 2 1 1 3 3 4 5 6 6 6 4 7 9 9 8 7 3 1 2 2 4 5 8
10 13 12 10 9 9 9 9 10 11 11 12 13 13 12 10 11 9 10 8 6 5 6 6 6 8 6 9 8 9 8 8 7 7 7 7 6 4 3 3 2 3 4 5 6 6 6 7 7 7 9 10 8 7 3 1 4 1 1 2 8 9
11 11 11 11 9 9 10 9 9 10 9 11 12 12 10 10 8 8 9 6 4 4 4 4 3 4 5 8 9 10 10 8 8 8 9 9 9 7 4 4 4 5 7 8 6 7 5 6 7 10 9 7 7 7 2 2 4 0 2 5 7 13
10 10 10 8 9 8 8 8 8 8 9 8 9 9 9 8 6 6 6 6 4 3 4 4 5 7 8 6 7 9 9 9 9 10 9 8 9 10 10 7 7 7 8 7 7 7 6 6 6 6 6 6 6 3 3 4 5 3 3 4 7 14
9 9 8 7 8 8 8 7 7 9 7 7 7 6 6 6 6 6 5 4 4 3 2 2 5 5 5 5 6 6 7 6 6 7 12 6 7 7 8 8 7 7 7 7 8 6 4 4 5 6 6 6 5 3 4 3 3 2 4 5 8 13
9 8 8 8 8 8 8 7 7 7 8 7 6 5 5 5 4 5 3 4 3 3 3 2 3 3 4 3 5 6 6 6 5 6 9 6 4 5 7 7 7 8 7 7 5 4 4 4 4 5 5 5 4 4 5 4 3 3 3 4 8 14
9 8 9 8 8 7 7 6 7 6 6 6 7 6 6 6 6 4 3 4 3 3 3 3 3 2 2 2 0 1 1 2 3 3 3 3 2 2 3 2 3 4 5 5 6 6 5 6 6 6 6 5 5 5 4 5 4 4 4 3 9 15
9 9 8 9 8 8 7 7 6 7 7 5 5 5 5 4 5 4 3 3 3 3 3 3 2 1 0 1 2 1 1 0 2 3 2 4 2 4 5 2 3 4 4 6 7 7 6 6 6 6 6 5 5 5 4 5 5 4 4 4 6 12
10 10 9 9 9 7 7 8 7 8 7 6 6 6 5 6 6 5 5 6 5 2 2 1 1 2 3 5 4 4 3 3 2 1 3 4 4 3 3 4 3 5 5 5 5 6 6 7 5 5 6 5 5 4 5 5 5 6 6 5 6 11
10 10 9 9 8 8 8 7 8 8 7 7 6 6 7 6 5 6 5 4 4 2 1 1 1 1 1 2 1 2 2 2 2 1 1 2 4 3 5 4 5 4 7 5 6 5 5 7 7 6 5 5 5 6 6 6 6 6 7 6 6 7
10 10 9 9 8 9 8 9 8 8 8 7 7 7 6 5 4 5 5 5 4 3 1 1 1 1 1 3 4 3 2 3 2 3 3 5 2 3 2 5 5 6 5 7 7 7 5 6 7 7 7 7 7 6 7 6 5 5 7 7 5 4
10 9 9 9 9 9 9 9 9 8 8 8 7 5 6 5 5 5 5 4 3 3 3 2 2 3 3 2 1 3 3 3 3 4 2 3 1 1 3 2 3 5 5 7 7 7 6 5 6 7 7 8 7 7 7 6 7 7 7 7 6 6
10 10 10 10 9 8 8 9 8 7 7 7 6 4 4 5 5 4 3 4 4 3 3 3 2 1 1 2 1 0 1 0 1 2 1 3 4 4 4 4 5 4 4 6 7 6 7 7 6 7 7 7 6 8 7 7 7 8 7 7 7 7
10 11 11 9 9 8 8 7 6 6 6 5 4 4 2 3 3 5 4 4 3 4 3 2 3 2 1 0 1 1 1 1 1 1 1 2 4 3 5 5 5 4 5 3 6 5 7 7 7 7 6 8 8 7 5 7 7 7 8 8 7 7
10 10 9 9 8 7 7 7 6 6 3 3 3 4 4 2 2 5 6 4 4 3 3 3 2 2 1 1 2 3 1 2 1 1 2 2 4 3 4 5 4 5 5 6 5 4 1 6 5 6 8 8 8 7 7 8 7 7 8 8 8 8
10 8 7 6 6 5 4 5 3 4 5 4 3 2 4 6 5 4 4 5 4 4 3 2 1 1 1 2 1 1 2 1 1 2 2 1 3 3 3 4 4 4 5 6 7 6 5 2 1 6 7 8 8 8 7 9 9 8 8 8 9 10
6 6 5 4 4 2 2 3 5 7 7 6 6 7 7 5 4 5 4 4 4 3 3 2 1 0 1 1 1 1 1 1 2 1 1 2 3 3 3 4 3 5 5 6 7 7 7 6 5 5 5 4 6 5 4 8 9 6 9 10 9 9
5 4 3 4 4 3 7 6 4 3 5 6 4 6 5 6 5 2 2 3 5 3 2 2 1 1 1 1 1 1 1 0 1 1 1 2 2 2 2 3 4 4 4 5 6 7 7 7 5 5 7 7 5 4 4 5 7 9 6 9 10 8
1 1 3 5 4 4 4 3 4 1 1 4 6 7 5 4 3 4 4 4 5 3 2 2 2 2 2 2 1 1 1 1 1 1 1 3 2 2 1 3 5 4 4 5 5 6 6 7 7 7 7 8 6 7 6 6 7 6 8 8 9 12
2 2 3 5 6 5 4 4 3 8 3 4 5 5 4 2 3 6 2 4 4 3 2 2 3 4 2 3 3 2 2 2 2 2 2 3 5 5 4 4 5 5 6 6 5 5 5 6 7 8 9 9 9 9 10 8 8 7 4 5 8 8
1 3 2 4 4 5 5 5 3 3 6 5 5 5 3 5 6 2 4 5 5 3 3 4 3 3 3 3 3 3 2 2 3 3 5 4 5 5 4 5 5 5 7 7 6 5 4 5 7 8 7 8 8 9 9 8 10 7 6 5 6 6
4 3 4 6 4 3 0 5 7 6 6 7 7 4 4 4 5 6 5 5 4 4 4 3 3 3 3 3 3 3 4 5 6 5 4 5 5 6 7 5 4 6 5 7 6 6 6 6 6 6 8 8 8 7 6 8 8 7 6 6 6 8
4 5 7 4 6 5 3 2 4 6 6 6 8 6 6 6 6 6 5 5 5 4 3 3 3 4 4 4 4 4 4 4 4 4 4 4 4 4 6 6 6 6 7 6 7 6 6 5 7 7 8 9 7 8 2 5 5 7 8 7 6 7
7 6 6 7 4 2 7 5 7 8 8 8 8 9 8 8 7 6 7 6 4 5 5 5 6 5 4 5 5 5 4 4 4 4 5 5 5 4 5 6 5 6 7 9 6 6 4 6 6 7 7 6 9 8 9 0 3 4 7 8 7 8
5 6 4 5 4 8 5 7 8 10 9 9 7 7 7 6 6 6 6 6 7 7 7 6 6 7 7 7 7 6 6 5 6 6 5 5 5 6 6 6 5 6 7 7 9 7 6 5 6 5 7 7 6 6 7 9 9 9 4 4 7 8
5 5 6 5 5 5 6 6 5 6 7 7 7 7 6 6 6 7 6 6 8 7 7 8 8 8 8 8 8 8 8 8 7 7 7 7 7 7 8 9 9 9 9 9 8 9 8 5 5 6 6 6 6 8 8 9 9 8 7 8 7 6
7 5 4 7 6 6 7 8 9 8 8 8 7 6 6 7 7 6 6 6 7 7 7 7 7 8 9 9 9 9 8 8 8 7 7 7 7 8 8 9 9 9 10 9 10 9 9 8 7 4 5 6 7 7 8 8 7 10 10 8 6 7
8 8 8 8 9 7 7 7 8 8 7 7 7 7 6 5 5 6 6 6 5 6 6 6 6 7 7 8 8 8 9 9 9 9 8 7 9 9 9 8 8 10 10 9 10 9 10 9 8 7 8 8 7 7 8 9 9 9 10 11 12 7
9 9 9 10 9 9 8 7 6 6 7 6 7 6 5 5 5 5 5 5 5 5 5 6 6 6 7 8 7 7 7 8 8 8 9 8 8 8 9 9 9 9 9 9 8 9 9 9 9 9 9 9 10 9 9 8 8 8 9 10 11 10
10 8 8 9 8 8 8 7 7 7 8 6 5 5 5 5 5 4 4 4 4 4 4 4 6 8 8 8 7 7 7 7 8 8 7 8 8 8 9 8 8 8 9 10 7 8 8 8 9 9 10 10 10 10 10 10 8 9 9 9 10 12
9 8 8 8 9 8 8 8 7 7 7 8 7 6 5 5 4 4 4 4 4 4 4 5 6 7 8 7 7 8 8 8 7 7 7 7 7 8 8 8 8 8 8 9 8 9 9 9 9 9 10 9 10 10 10 11 11 11 11 10 12 12
9 9 8 8 9 8 7 9 8 8 8 7 6 5 6 6 4 4 4 3 4 4 4 6 6 6 7 8 7 8 8 8 7 7 7 7 7 7 8 7 7 7 7 8 8 8 8 8 10 9 10 9 9 9 10 10 11 11 12 12 11 13
10 9 9 9 9 9 9 8 8 8 8 7 7 6 6 5 5 5 4 4 4 5 5 5 6 6 7 8 7 7 7 6 6 6 7 7 7 8 7 7 6 7 7 8 8 9 8 9 9 9 9 9 9 9 9 9 10 11 12 12 12 12
10 10 9 9 9 10 9 9 8 8 8 7 7 6 6 5 5 5 5 5 5 5 5 5 6 6 6 6 6 6 6 6 6 7 7 7 7 7 8 7 7 7 8 7 7 8 7 8 7 9 8 8 8 9 9 9 9 9 10 11 12 13
9 9 10 10 10 10 9 9 8 7 7 6 6 6 6 6 6 6 6 6 6 6 6 5 6 6 6 6 6 6 7 7 7 7 7 7 7 6 7 6 6 7 7 6 8 7 7 8 8 9 9 8 8 8 8 8 9 9 9 9 10 11
10 9 10 10 10 9 9 8 8 8 8 7 7 7 6 6 7 7 7 7 6 6 6 5 6 6 6 5 6 6 6 7 7 7 7 7 8 7 7 7 6 7 8 6 7 9 7 8 9 10 9 9 9 8 8 9 9 9 9 9 9 10
10 10 10 10 9 9 9 9 9 8 8 8 8 8 7 8 8 8 7 7 7 6 6 6 5 5 5 6 6 6 6 6 7 7 7 8 8 7 7 6 6 7 8 8 8 8 8 8 8 8 8 10 9 9 9 10 9 10 10 10 9 10
Wind_Direction
142 141 136 132 132 135 134 135 136 135 140 140 140 140 143 148 152 149 145 146 157 155 143 136 160 130 149 121 107 121 115 109 113 114 120 118 128 139 143 135 128 322 260 242 212 198 195 192 193 209 227 247 259 264 263 341 289 187 157 140 120 98
138 133 140 133 130 134 149 168 151 154 154 152 154 155 158 160 161 154 150 157 168 166 145 148 135 140 126 129 133 127 127 122 122 126 124 137 135 149 162 165 204 246 275 236 214 201 185 198 202 202 227 244 253 254 236 263 297 25 161 160 93 120
135 137 137 129 128 136 154 157 157 160 155 166 161 165 170 164 163 156 156 165 188 177 143 115 115 109 124 119 134 151 141 144 146 151 159 154 159 158 172 199 215 230 245 249 227 222 187 179 191 199 233 244 249 256 103 274 252 26 246 69 101 128
138 137 139 139 132 147 156 155 160 157 161 171 169 169 168 160 168 161 154 164 169 139 119 131 130 131 139 149 146 158 158 156 168 173 168 173 167 168 178 200 210 235 236 227 223 223 204 185 175 182 205 231 243 212 213 197 243 208 360 135 110 132
139 144 138 135 139 158 146 164 166 157 164 167 172 166 160 157 153 155 154 152 136 125 119 172 164 153 195 175 159 165 170 182 185 185 179 196 181 163 192 187 188 209 222 237 231 222 235 196 187 197 205 224 238 214 236 231 270 286 203 108 128 143
147 145 149 152 151 143 158 162 159 171 158 176 154 163 153 146 151 154 154 119 129 149 163 159 186 175 180 175 179 168 179 186 193 183 177 223 189 165 197 197 189 195 219 235 250 266 221 250 224 214 220 217 234 218 250 251 217 214 266 150 141 148
144 148 155 147 130 163 163 156 155 163 161 178 156 165 167 160 158 138 129 145 170 169 183 165 165 188 152 170 132 340 126 157 189 185 179 224 161 247 255 219 240 228 239 245 240 239 223 226 249 247 223 218 226 233 231 263 247 229 236 217 146 160
149 153 152 145 155 164 152 159 152 147 174 161 152 170 149 148 123 158 142 160 197 202 145 164 146 137 52 126 99 148 93 91 352 356 105 284 189 210 233 236 254 269 248 235 240 239 244 226 208 251 270 238 224 244 255 256 267 262 266 246 155 166
153 155 153 158 163 153 156 158 156 167 151 171 161 157 142 132 164 156 169 170 187 149 137 153 63 62 19 340 20 3 42 337 6 332 347 343 317 297 268 252 243 260 241 248 234 237 247 254 225 208 246 259 261 254 245 255 264 261 245 245 217 174
155 157 155 161 158 148 156 150 163 154 144 175 151 143 149 166 147 149 150 140 126 129 112 42 141 45 321 187 79 312 358 300 204 173 275 259 271 314 314 323 287 292 270 237 252 233 236 247 247 219 225 251 256 259 259 242 244 254 264 253 253 156
157 157 160 158 152 155 157 160 159 154 163 158 154 148 155 138 130 131 127 138 142 126 148 162 152 325 166 210 188 204 246 252 320 301 222 208 198 267 54 305 318 276 305 317 326 286 224 242 253 244 213 215 236 246 258 273 282 261 261 273 278 182
155 161 163 152 154 160 158 157 158 156 156 152 140 135 145 147 144 142 140 152 134 150 171 103 275 195 197 198 214 214 190 214 167 209 250 332 259 199 257 203 281 286 264 271 266 270 277 261 266 261 248 216 213 231 246 256 257 263 258 258 257 275
160 161 160 160 160 159 159 159 155 152 144 137 132 144 158 136 149 117 140 142 168 166 159 159 199 210 203 221 91 288 207 182 248 260 247 278 306 303 261 237 248 250 312 282 278 273 283 276 277 276 279 271 238 215 238 254 248 249 263 252 247 240
165 165 165 160 159 160 154 152 141 128 115 125 123 130 87 95 191 147 151 161 160 149 170 133 154 175 252 134 177 288 20 223 244 271 262 244 239 218 266 284 292 271 239 239 270 292 295 300 265 276 272 254 257 270 254 241 250 255 249 259 258 257
165 162 161 160 153 141 152 154 136 113 125 102 118 133 157 187 220 161 167 142 141 136 149 144 144 187 209 265 172 195 204 227 218 253 252 236 292 281 279 269 279 285 278 268 270 246 287 255 328 300 291 300 284 263 257 254 255 257 256 259 273 259
156 151 148 143 137 151 149 120 98 158 144 162 156 124 165 201 202 126 119 125 126 128 126 122 134 158 207 251 251 223 195 117 209 238 249 294 256 270 286 297 286 278 289 284 273 256 214 320 292 279 295 298 312 303 301 296 270 263 247 243 247 251
129 131 127 120 107 56 10 110 168 159 156 177 179 198 183 136 84 129 107 115 124 116 135 128 149 160 289 269 235 225 123 123 235 224 242 250 270 314 307 293 298 288 295 292 293 292 290 269 276 290 287 286 281 300 328 278 283 272 296 267 249 259
143 129 121 106 80 211 165 187 172 177 163 154 208 150 116 113 126 70 103 80 103 101 87 100 89 43 13 295 338 357 78 169 257 284 237 249 269 295 294 295 289 292 291 294 292 296 304 300 294 278 278 279 272 274 246 268 278 281 249 269 272 257
298 84 104 111 200 208 161 150 147 98 135 210 142 64 43 61 56 73 76 108 102 98 87 76 60 41 29 349 15 21 351 15 313 299 291 285 243 233 312 308 309 309 292 289 298 302 301 302 294 289 288 285 286 269 287 273 274 273 281 305 321 296
256 255 164 171 186 177 179 152 140 160 118 29 29 104 115 109 137 108 148 97 90 90 79 55 58 48 16 5 359 1 17 339 326 317 316 334 351 338 323 314 309 311 304 295 293 291 295 303 302 296 282 276 265 266 258 255 268 274 298 272 257 270
183 259 241 194 190 212 175 153 189 134 156 137 117 114 90 93 71 327 96 98 93 74 49 49 54 49 27 7 2 5 352 348 340 350 10 331 314 316 317 312 307 304 298 296 291 293 293 291 292 286 268 266 269 257 254 261 261 260 256 265 268 274
169 261 284 257 232 216 233 180 162 150 130 140 111 99 96 101 108 92 89 81 72 70 60 52 42 41 31 14 7 2 359 13 1 17 342 343 332 314 313 297 304 295 294 294 293 294 300 297 286 301 308 305 294 284 279 251 256 262 283 277 281 274
201 212 216 188 244 162 201 128 112 116 116 87 101 110 111 99 94 96 78 71 69 57 45 47 37 41 39 14 9 1 14 339 2 346 314 322 330 318 307 308 297 301 306 286 288 292 286 290 305 309 303 296 298 309 232 215 246 242 236 240 246 259
179 220 181 189 191 96 133 131 94 97 103 105 111 112 112 110 100 94 86 77 65 46 40 30 24 23 45 30 6 360 2 356 342 328 325 321 322 324 299 297 311 299 287 301 297 308 292 293 301 315 310 320 312 300 308 194 296 271 232 238 239 255
174 201 237 172 212 152 136 117 117 113 109 108 105 102 90 84 77 74 67 56 54 42 41 27 27 25 20 27 21 8 2 345 345 338 331 335 339 339 335 323 317 313 312 311 315 314 308 296 297 288 301 309 309 300 320 324 334 304 301 231 237 241
193 218 165 156 154 123 125 113 108 113 107 93 86 72 73 72 76 64 57 57 47 38 36 28 24 19 20 18 11 5 5 355 359 358 358 355 354 353 352 347 345 337 329 326 318 315 312 309 296 293 290 281 287 301 313 320 319 309 309 291 288 253
114 108 102 81 82 94 94 91 87 83 87 92 98 90 79 77 77 77 71 59 53 37 27 34 26 15 11 12 7 8 9 9 4 13 359 358 358 359 352 354 344 342 339 336 336 319 318 320 313 290 292 293 289 287 290 300 304 313 306 311 294 294
74 70 64 71 69 70 78 80 85 84 83 90 89 91 87 82 77 76 70 59 62 55 38 29 22 14 13 27 22 15 9 9 359 0 353 7 4 356 347 340 341 336 342 349 345 345 336 329 326 320 327 314 304 287 271 267 274 290 298 301 305 302
79 74 65 60 63 63 66 73 84 95 95 90 96 94 88 82 80 74 73 59 55 50 41 32 27 25 24 27 18 16 11 12 7 6 357 359 356 354 350 344 344 345 344 344 342 347 343 340 337 334 335 333 325 315 309 297 289 284 290 298 297 304
82 79 77 72 70 71 78 80 88 95 103 103 104 101 90 85 75 76 82 71 58 54 37 39 45 36 27 21 13 11 14 15 17 8 359 354 348 350 349 345 343 342 343 340 341 346 339 334 335 336 336 330 330 330 324 323 317 314 304 293 294 304
86 86 80 76 68 59 59 72 77 78 92 101 88 83 95 86 71 70 65 53 54 65 58 41 32 42 22 13 17 19 8 9 5 359 344 340 345 343 335 335 331 342 342 343 335 339 341 342 344 336 331 333 331 328 325 320 322 325 323 318 319 311
85 78 75 72 72 73 69 63 68 76 76 71 77 82 82 79 77 79 68 83 85 68 53 54 34 40 25 17 18 19 14 6 8 357 352 347 350 346 338 330 334 347 346 336 340 345 338 341 344 334 332 335 328 322 318 318 322 320 322 321 318 310
82 75 72 71 73 77 79 82 82 83 80 79 81 89 89 88 86 81 73 64 63 62 50 46 35 27 29 26 24 22 13 11 6 7 2 0 354 360 350 344 0 2 342 357 359 351 344 352 348 338 336 331 323 323 322 321 317 322 323 321 320 315
82 76 74 74 78 79 78 79 82 83 86 86 86 83 83 85 79 75 70 72 67 64 69 55 45 34 26 26 32 28 27 27 21 21 17 12 4 10 356 357 356 8 357 8 350 353 355 359 351 353 342 333 338 328 322 321 323 325 325 323 323 322
87 82 82 81 77 78 77 73 76 76 85 93 90 82 73 67 68 75 77 66 61 61 65 59 50 45 35 43 44 43 37 30 28 17 11 7 360 9 360 356 0 7 1 359 344 347 353 353 351 350 345 344 334 326 331 334 337 332 327 323 322 320
83 84 85 84 81 81 80 77 75 70 76 83 87 89 87 87 86 83 76 76 76 72 67 69 63 57 56 50 46 43 39 35 20 18 15 9 10 8 358 5 360 7 2 358 343 347 357 351 353 348 347 349 336 337 331 341 336 333 329 329 324 323
92 95 96 90 87 84 85 83 82 81 84 84 85 85 88 89 86 84 81 78 76 74 74 70 70 63 59 59 48 34 41 29 29 21 19 15 14 10 2 12 2 7 7 355 349 354 359 356 353 351 353 349 344 337 344 347 341 338 332 331 331 329